• Processing (Info)

  • MPEC 2022-X25 : 2022 WD11

    The following Minor Planet Electronic Circular may be linked-to from your own Web pages, but must not otherwise be redistributed electronically.

    A form allowing access to any MPEC is at the bottom of this page.


    Read MPEC 2022-X24 Read MPEC 2022-X26


    M.P.E.C. 2022-X25                              Issued 2022 December 1, 17:32 UT
    
         The Minor Planet Electronic Circulars contain information on unusual
             minor planets, routine data on comets and natural satellites,
             and occasional editorial announcements.  They are published
        on behalf of Division F of the International Astronomical Union by the
              Minor Planet Center, Smithsonian Astrophysical Observatory,
                              Cambridge, MA 02138, U.S.A.
    			  
                 Prepared using the Tamkin Foundation Computer Network
    
                                  MPC@CFA.HARVARD.EDU
                URL https://www.minorplanetcenter.net/    ISSN 1523-6714
    
                                    2022 WD11                                
    
    
    Observations:
         K22W11D* C2022 11 27.35060903 38 30.077+24 39 38.92         21.48GVEX025V00
         K22W11D  C2022 11 27.35558903 38 29.141+24 40 19.45         21.20GVEX025V00
         K22W11D  C2022 11 27.36062103 38 28.226+24 41 00.42         21.51GVEX025V00
         K22W11D  C2022 11 27.36566403 38 27.283+24 41 40.60         21.35GVEX025V00
         K22W11D mC2022 11 28.26920803 36 32.119+26 36 05.40         22.44GVEX025V00
         K22W11D mC2022 11 28.26993303 36 32.033+26 36 11.05         21.76GVEX025V00
         K22W11D mC2022 11 28.27065703 36 31.921+26 36 16.34         21.74GVEX025V00
         K22W11D mC2022 11 28.27138103 36 31.799+26 36 21.35         21.78GVEX025V00
         K22W11D KC2022 11 28.39255203 36 11.611+26 50 03.41         22.0 GVEX025H01
         K22W11D KC2022 11 28.40756603 36 09.358+26 51 43.21         21.9 GVEX025H01
         K22W11D KC2022 11 28.41288403 36 08.579+26 52 18.29         22.4 GVEX025H01
         K22W11D KC2022 12 01.38121 03 31 21.97 +31 21 09.5                oEX025291
         K22W11D KC2022 12 01.38724 03 31 21.33 +31 21 34.6                oEX025291
    
    Observer details:
    291 LPL/Spacewatch II.  Observers J. A. Larsen, R. A. Mastaler.  Measurers J.
        A. Larsen, R. A. Mastaler, T. A. Tatara.  1.8-m f/2.7 reflector + CCD.
    H01 Magdalena Ridge Observatory, Socorro.  Observers W. H. Ryan, E. V. Ryan.
        Measurer W. H. Ryan.  2.4-m f/8.9 Ritchey-Chretien + CCD.
    V00 Kitt Peak-Bok.  Observer H. Groeller.  Measurers M. J. Brucker, E. J.
        Christensen, C. E. Woodward, D. Fay, J. B. Fazekas, D. C. Fuls, A. R.
        Gibbs, A. D. Grauer, H. Groeller, J. K. Hogan, R. A. Kowalski, S. M.
        Larson, G. J. Leonard, R. S. McMillan, D. Rankin, R. L. Seaman, A.
        Serrano, F. C. Shelly, K. W. Wierzchos.  2.25-m reflector + 4x4K mosaic
        CCD.
    
    Orbital elements:
    2022 WD11                                                Earth MOID = 0.0292 AU
    Epoch 2023 Feb. 25.0 TT = JDT 2460000.5                 Prema                   
    M 107.59357              (2000.0)            P               Q                  
    n   0.69936195     Peri.  279.49018     +0.93483457     +0.30933741             
    a   1.2569984      Node    62.66205     -0.19611644     +0.85910472             
    e   0.3470606      Incl.   11.31836     -0.29601127     +0.40773699             
    P   1.41           H   26.98          G   0.15           U   8                  
    Residuals in seconds of arc
    221127 V00  0.0   0.1-    221128 V00  0.1-  0.1-    221128 H01  0.0   0.1-
    221127 V00  0.1-  0.1+    221128 V00  0.0   0.1+    221201 291  0.1+  0.2-
    221127 V00  0.1+  0.3+    221128 V00  0.1+  0.0     221201 291  0.0   0.2+
    221127 V00  0.1-  0.2-    221128 H01  0.0   0.0
    221128 V00 (0.6-  0.7-)   221128 H01  0.1-  0.1+
    
    Ephemeris:
    2022 WD11                a,e,i = 1.26, 0.35, 11                  q = 0.8207
    Date    TT    R. A. (2000) Decl.     Delta      r    Elong.  Phase     V
    2022 11 01    14 25 18.0 -61 26 21   0.1163  0.9177    47.2   127.5    27.6
    ...
    2022 11 16    05 33 44.9 -60 59 34   0.03245 0.9931    96.2    81.9    22.4
    ...
    2022 11 24    03 49 06.3 +13 51 51   0.04989 1.0370   173.2     6.5    21.0
    ...
    2022 11 30    03 33 24.4 +29 31 45   0.08662 1.0707   166.4    12.5    22.6
    2022 12 01    03 31 56.3 +30 53 17   0.09324 1.0764   164.7    14.0    22.8
    2022 12 02    03 30 40.8 +32 03 34   0.09994 1.0821   163.1    15.3    23.0
    ...
    2022 12 08    03 26 20.0 +36 34 30   0.1418  1.1161   155.9    21.1    24.0
    ...
    2022 12 16    03 26 06.6 +39 15 35   0.2014  1.1614   148.9    26.0    25.0
    ...
    2022 12 31    03 36 16.5 +40 45 52   0.3250  1.2441   138.0    31.9    26.4
    
    M. P. C. Staff               (C) Copyright 2022 MPC           M.P.E.C. 2022-X25
    


    Read MPEC 2022-X24 Read MPEC 2022-X26


    MPEC number:

    Enter an MPEC number in one of the following forms:

    • 1997-B01 (the full form)
    • J97B01 (the packed version of the full form)
    • B01 (the abbreviated form)